Regional Weather Roundup
Issued by NWS San Diego, CA

Home | Current Version | Previous Version | Text Only | Print | Product List | Glossary On
Versions: 1 2 3 4 5 6 7 8 9 10 11 12 13 14 15 16 17 18 19 20 21 22 23 24 25 26 27 28 29 30 31 32 33 34 35 36 37 38 39 40 41 42 43 44 45 46 47 48 49 50
151
ASUS46 KSGX 080311
RWRSGX

SAN DIEGO HOURLY WEATHER ROUNDUP
NATIONAL WEATHER SERVICE SAN DIEGO CA
700 PM PST SUN FEB 07 2016

NOTE: "FAIR" INDICATES FEW OR NO CLOUDS BELOW 12,000 FEET WITH NO
SIGNIFICANT WEATHER AND/OR OBSTRUCTIONS TO VISIBILITY.

CAZ042-043-060-061-PZZ750-775-080400-

GREATER SAN DIEGO AREA

CITY           SKY/WX    TMP DP  RH WIND       PRES   REMARKS
LINDBERGH FLD  PTCLDY    71  21  15 N6        30.09R
NATIONAL CITY    N/A     67  43  41 CALM      30.09R
CHULA VISTA      N/A     66  43  42 CALM      30.00R
IMPERIAL BEACH CLEAR     59  46  62 CALM      30.09R
BROWN FIELD    CLEAR     63  34  33 CALM      30.09R
MIRAMAR MCAS   CLEAR     62  27  26 E5        30.09R
MONTGOMERY FLD CLEAR     63  27  25 N7        30.09R

$$

NORTH SAN DIEGO COUNTY

CITY           SKY/WX    TMP DP  RH WIND       PRES   REMARKS
CAMP PENDLETON CLEAR     58  46  64 W6        30.08R
OCEANSIDE AP   CLEAR     58  46  64 CALM      30.08R
OCEANSIDE HBR    N/A     62  55  78 CALM      30.10R
VISTA            N/A     63  39  40 CALM      30.08R
CARLSBAD       CLEAR     64  36  35 CALM      30.08R
DEL MAR          N/A     62  33  33 CALM      30.11S
FALLBROOK        N/A     68  33  27 CALM      30.07R
ESCONDIDO        N/A     71  37  28 CALM      30.09S
SAN MARCOS       N/A     68  35  30 CALM      30.07R
POWAY            N/A     75  21  13 CALM      30.10S

$$

EAST SAN DIEGO COUNTY

CITY           SKY/WX    TMP DP  RH WIND       PRES   REMARKS
RAMONA         CLEAR     69  18  14 E12       30.12S
SANTEE LAKES     N/A     64  29  26 CALM      30.07R
LA MESA          N/A     70  34  26 CALM      30.02R
JAMUL            N/A     68  35  29 E3        30.11R
DESCANSO N       N/A     63  15  15 NE22      30.01R
MT. LAGUNA OBS   N/A     48  10  21 E17       29.85R
CAMPO            N/A     64  16  15 NE16G24   30.13S

$$

ORANGE COUNTY AND THE LOS ANGELES BASIN

CITY           SKY/WX    TMP DP  RH WIND       PRES   REMARKS
JOHN WAYNE AP  CLEAR     74  18  12 NE8       30.08R
LAGUNA BEACH     N/A     62  44  52 CALM      30.03R
LAKE FOREST FR   N/A     74  14  10 NE18      29.97S
HUNTINGTON BCH   N/A     70  35  27 CALM      30.10R
LOS ALAMITOS   FAIR      68  32  27 W3        30.08S
FULLERTON      CLEAR     74  25  16 N3        30.08R
LONG BEACH     CLEAR     70  32  24 W3        30.09R
L.A. AP        CLEAR     71  23  16 CALM      30.09R
L.A. DOWNTOWN  CLEAR     67  30  25 CALM      30.08S

$$

THE INLAND EMPIRE

CITY           SKY/WX    TMP DP  RH WIND       PRES   REMARKS
CORONA         CLEAR     74  18  12 NE13G20   30.14R
CHINO          CLEAR     73  15  11 E12       30.13R
ONTARIO        CLEAR     76   7   7 NE15G26   30.12R
SAN BERNARDINO CLEAR     72  10   9 N17G26    30.16R
RIVERSIDE AP   CLEAR     74  13   9 NE8G18    30.15R
MORENO VALLEY    N/A     66  28  23 CALM      28.27S
MARCH ARB      CLEAR     61  21  22 NW6       30.17R
HORSETHIEF CYN   N/A     69  14  12 NW10      30.19R
PERRIS           N/A     69  24  18 S7        30.17R
HEMET EAST       N/A     65  18  16 CALM      30.04S
FRENCH VALLEY  FAIR      68  16  13 CALM      30.15R
TEMECULA         N/A     75  21  13 E5        30.07R

$$

SAN BERNARDINO AND RIVERSIDE COUNTY MOUNTAINS

CITY           SKY/WX    TMP DP  RH WIND       PRES   REMARKS
BIG BEAR AP    CLEAR     37  12  35 E6        30.43R WCI  33
PINE COVE        N/A     51  17  25 NW2       30.17S

$$

SOUTHERN DESERT INCLUDING THE COACHELLA VALLEY

CITY           SKY/WX    TMP DP  RH WIND       PRES   REMARKS
PALM SPRINGS   PTCLDY    75  18  11 N16       30.20R
THOUSAND PALMS   N/A     74  18  12 NW6       30.15S
PALM DESERT      N/A     74  22  14 W1          N/A
THERMAL        CLEAR     69  22  16 CALM      30.13R
BLYTHE         CLEAR     70  20  15 N14       30.15S
IMPERIAL AP    CLEAR     66  29  24 SW3       30.13R
EL CENTRO NAS  CLEAR     65  23  20 SW3       30.16R
YUMA AZ        PTCLDY    67  24  19 NW7       30.13S
MEXICALI       CLEAR     68  25  19 W6        30.14S

$$

UPPER DESERT

CITY           SKY/WX    TMP DP  RH WIND       PRES   REMARKS
VICTORVILLE AP CLEAR     52  16  24 CALM      30.33S
HESPERIA         N/A     54  21  28 CALM      30.48R
APPLE VALLEY     N/A     60  14  16 CALM      30.29R
PALMDALE       CLEAR     53  19  26 E13       30.32R
LANCASTER      CLEAR     58  17  20 E9        30.31R
EDWARDS AFB    CLEAR     56  19  22 NE5       30.29R
DAGGETT        CLEAR     59  16  18 CALM      30.31R
29 PALMS N     CLEAR     61  16  17 NW7       30.35R
NEEDLES        CLEAR     70  22  16 N17       30.22R

$$

REGIONAL REPORTS

CITY           SKY/WX    TMP DP  RH WIND       PRES   REMARKS
SANTA BARBARA  CLEAR     61  37  41 NE5       30.11R
SANDBERG       CLEAR     56  14  19 E29G46    30.32R
LAS VEGAS NV   CLEAR     63  21  20 NE6       30.32R
PHOENIX AZ     PTCLDY    67  26  21 W3        30.13R
TIJUANA        CLEAR     68  28  22 CALM      30.11R
ENSENADA NW      N/A     65  32  28 E2        30.06R

$$

OFFSHORE ISLANDS

CITY           SKY/WX    TMP DP  RH WIND       PRES   REMARKS
CATALINA ARPT  CLEAR     70  16  12 E9        30.16R
SAN NICOLAS IS CLEAR    N/A N/A N/A NW6       30.11S

$$

MARINE AND OFFSHORE BUOY REPORTS

STATION/POSITION SKY/WX   TEMP    WIND        PRES    SWELL
                          AIR SEA DIR/SP/G            HT/PER/DIR
                          (F)     (DEG/KT/KT) (MB)    (FT/S/D)
TANNER BANKS               62 60  360/  6/  8 1018.8R   5/310/12
S CLEMENTE BASIN           63 61  330/  8/ 10 1018.4R   3/290/13
SAN NICOLAS IS.               60                N/A     5/300/13
SO. S. ROSA ISLA           61 58              1018.6R
W. S. BARBARA CH           62 60  320/  8/ 10 1019.4R   5/300/11
M. S. BARBARA CH           62 59  280/  2/  4 1020.0R
S. MONICA BASIN            64 59  300/  6/  8 1019.0R   3/250/13
S PEDRO CHANNEL               60                N/A     2/260/13
DANA POINT                    61                N/A     2/240/13
OCEANSIDE OFFSHR              61                N/A     2/240/13
TORREY PINES OTR              61                N/A     2/270/13
LA JOLLA 1                 69 60              1018.5R
SAN DIEGO BAY                 60              1018.9R
POINT LOMA SOUTH              61                N/A     3/270/13

$$





USA.gov is the U.S. government's official web portal to all federal, state and local government web resources and services.